Location: ????????
(41.2031°N, 22.5756°E)
Time: 15:23:08
(UTC+00:00)

Cosmos 1603 - Pass Details

Date: 01 December 2020
Orbit: 831 x 859 km, 71.0° (Epoch: 21 January)

Event Time Altitude Azimuth Distance (km) Brightness Sun altitude
Rises 16:01:45 0° 186° (S) 3,375 7.2 -11.2°
Reaches altitude 10° 16:04:15 10° 181° (S) 2,441 6.4 -11.6°
Maximum altitude 16:09:37 49° 108° (ESE) 1,065 3.9 -12.6°
Enters shadow 16:14:39 12° 35° (NE) 2,322 5.5 -13.5°
